[[{"header":{"parameterUnit":"m.s-1","parameterCategory":1,"la1":30.2991,"la2":30.254,"lo1":-89.0895,"lo2":-89.0444,"dy":0.0017,"dx":0.0017,"nx":28,"ny":28,"refTime":"2024-06-17T09:00:00:Z","depth":0,"parameterNumber":2,"parameterNumberName":"U-component_of_WINDS"},"data":[0,0,0,0,0,0,0,0,0,0,0,0,0,0,0,0,0,0,0,0,0,0,0,0,0,0,0,0,0,0,0,0,0,0,0,0,0,0,0,0,0,0,0,0,0,0,0,0,0,0,0,0,0,0,0,0,0,0,-10.0801,-10.0802,0,-10.0885,-10.0886,-10.0887,-10.0714,-10.0708,-10.0703,-10.0697,-10.0778,-10.0785,-10.0793,0,0,0,0,0,0,0,0,0,0,0,0,0,-10.0485,-10.0491,-10.0801,-10.0802,-10.0803,-10.0885,-10.0886,-10.0887,-10.0715,-10.0708,-10.0701,-10.0695,-10.0776,-10.0784,-10.0793,0,0,0,0,0,0,0,0,0,0,0,0,0,-10.0601,-10.0494,-10.0801,-10.0727,-10.0721,-10.0885,-10.0886,-10.0888,-10.0716,-10.0708,-10.07,-10.0692,-10.0773,-10.0783,-10.0794,-10.1032,0,0,-10.0828,-10.0833,0,0,0,0,0,0,0,0,-10.0594,-10.0612,-10.0737,-10.0733,-10.0726,-10.0781,-10.0804,-10.0936,-10.0719,-10.0718,-10.0697,-10.0688,-10.0785,-10.0795,-10.0829,-10.1035,-10.1039,-10.0829,-10.0836,-10.0841,-10.0844,0,0,0,0,0,0,0,-10.0586,-10.0608,-10.0834,-10.0739,-10.0733,-10.0688,-10.0695,-10.0828,-10.0798,-10.0718,-10.0705,-10.0718,-10.0781,-10.0819,-10.083,-10.104,-10.0829,-10.0839,-10.0846,-10.085,-10.1441,-10.145,0,0,0,0,0,0,-10.0589,-10.0602,-10.0831,-10.0836,-10.0638,-10.07,-10.0708,-10.0772,-10.0796,-10.0792,-10.0725,-10.071,-10.0804,-10.0817,-10.0832,-10.1107,-10.0841,-10.0851,-10.0857,-10.1432,-10.1443,-10.1453,0,0,0,0,0,0,-10.0582,-10.0611,-10.0828,-10.0716,-10.074,-10.0715,-10.0787,-10.0778,-10.0815,-10.0802,-10.0795,-10.077,-10.0798,-10.0816,-10.0983,-10.1108,-10.0856,-10.0866,-10.1422,-10.1436,-10.1448,-10.1663,0,0,0,0,0,0,-10.0574,-10.061,-10.0701,-10.072,-10.0747,-10.098,-10.0795,-10.0785,-10.0836,-10.0816,-10.0842,-10.0838,-10.0793,-10.0967,-10.0994,-10.1118,-10.0875,-10.141,-10.1428,-10.1444,-10.1645,-10.1682,-10.1715,0,0,0,0,0,-10.0563,-10.0758,-10.0706,-10.0735,-10.0861,-10.0988,-10.1003,-10.0949,-10.0847,-10.0936,-10.0928,-10.0837,-10.1091,-10.0986,-10.1014,-10.1144,-10.1402,-10.1423,-10.1443,-10.1629,-10.1675,-10.1714,0,0,0,0,0,0,-10.0752,-10.0759,-10.0702,-10.0908,-10.0949,-10.0958,-10.107,-10.1,-10.1068,-10.1047,-10.0975,-10.0982,-10.1162,-10.117,-10.1053,-10.1373,-10.1229,-10.1256,-10.1361,-10.1404,-10.1439,-10.1431,-10.0884,0,0,0,0,0,-10.0818,-10.0923,-10.0922,-10.1104,-10.1127,-10.1096,-10.1149,-10.1104,-10.1142,-10.1158,-10.1161,-10.12,-10.1288,-10.1347,-10.1428,-10.1647,-10.1647,-10.175,-10.1785,-10.1814,-10.1837,-10.1949,-10.1993,-10.152,-10.152,-10.1519,0,0,-10.0954,-10.0971,-10.1041,-10.1142,-10.1168,-10.1275,-10.1111,-10.1232,-10.1309,-10.1175,-10.1332,-10.1337,-10.1375,-10.1568,-10.1653,-10.158,-10.1968,-10.184,-10.1863,-10.187,-10.1975,-10.2019,-10.2059,-10.1534,-10.1531,-10.1529,0,0,-10.1257,-10.1282,-10.1434,-10.1465,-10.1507,-10.1485,-10.1522,-10.1543,-10.154,-10.1697,-10.1598,-10.1689,-10.1844,-10.1874,-10.191,-10.2225,-10.2142,-10.2254,-10.2434,-10.2545,-10.2582,-10.2615,-10.2723,-10.2763,-10.2277,-10.2278,-10.2278,0,-10.142,-10.1579,-10.1521,-10.1649,-10.1694,-10.1581,-10.1733,-10.1765,-10.1831,-10.1864,-10.1782,-10.1973,-10.1991,-10.2187,-10.2264,-10.2299,-10.2336,-10.2248,-10.2582,-10.2614,-10.2644,-10.2746,-10.2787,-10.2291,-10.2289,-10.2288,-10.2287,0,-10.1775,-10.1888,-10.2006,-10.2073,-10.2133,-10.2273,-10.2234,-10.2301,-10.2252,-10.2238,-10.2397,-10.2416,-10.2497,-10.2541,-10.2494,-10.2731,-10.2684,-10.2595,-10.2446,-10.2703,-10.2797,-10.2836,-10.2309,-10.2304,-10.2301,-10.2297,0,0,-10.2195,-10.2231,-10.2275,-10.2303,-10.2342,-10.2426,-10.256,-10.264,-10.2697,-10.2748,-10.2855,-10.2989,-10.2906,-10.2947,-10.2902,-10.3,-10.3243,-10.2897,-10.2896,-10.2956,-10.3501,-10.3564,-10.3611,-10.3191,-10.3198,-10.3204,-10.3496,0,-10.2491,-10.2722,-10.2674,-10.2899,-10.3,-10.2894,-10.301,-10.3045,-10.3036,-10.3118,-10.3107,-10.3202,-10.3087,-10.3111,-10.3203,-10.3194,-10.335,-10.3173,-10.3286,-10.3291,-10.3274,-10.3661,-10.3729,-10.4003,-10.3533,-10.3539,-10.3544,0,-10.2866,-10.2931,-10.3167,-10.3188,-10.3229,-10.3334,-10.3403,-10.3485,-10.3521,-10.3508,-10.3555,-10.3491,-10.362,-10.3476,-10.3651,-10.3531,-10.3575,-10.3578,-10.3587,-10.3591,-10.3429,-10.3671,-10.409,-10.4129,-10.3602,-10.3597,-10.3593,0,-10.3143,-10.329,-10.3449,-10.3477,-10.3507,-10.3583,-10.3599,-10.3628,-10.3679,-10.374,-10.3771,-10.3847,-10.3886,-10.3945,-10.3902,-10.3801,-10.4083,-10.3936,-10.4072,-10.4073,-10.4131,-10.4127,-10.4558,-10.4169,-10.4169,-10.4168,-10.4167,0,-10.3475,-10.3622,-10.3573,-10.3671,-10.3832,-10.3776,-10.3936,-10.3939,-10.3966,-10.406,-10.3974,-10.4064,-10.4004,-10.4089,-10.4056,-10.4204,-10.4224,-10.4214,-10.4202,-10.4219,-10.4219,-10.4242,-10.422,-10.4179,-10.4176,-10.4174,-10.4172,0,-10.3809,-10.3783,-10.3949,-10.3965,-10.3972,-10.4089,-10.4101,-10.419,-10.4176,-10.4296,-10.4321,-10.4298,-10.4392,-10.4357,-10.4458,-10.4436,-10.4623,-10.459,-10.4611,-10.46,-10.4737,-10.4722,-10.5193,-10.525,-10.483,-10.4834,-10.4837,0,-10.402,-10.4131,-10.4159,-10.4217,-10.4239,-10.4334,-10.4385,-10.4335,-10.4392,-10.4443,-10.4525,-10.4613,-10.468,-10.4836,-10.4826,-10.4902,-10.4866,-10.5026,-10.4877,-10.4889,-10.4863,-10.4855,-10.4863,-10.5054,-10.5059,-10.5063,-10.5067,0,-10.4396,-10.4378,-10.4457,-10.4533,-10.4598,-10.4654,-10.4703,-10.4755,-10.4706,-10.4775,-10.4871,-10.4924,-10.5027,-10.5113,-10.5182,-10.5194,-10.5122,-10.5115,-10.5149,-10.5164,-10.517,-10.5164,-10.4687,-10.5103,-10.5099,-10.5096,-10.5094,-10.5093,-10.4672,-10.4764,-10.4798,-10.4889,-10.492,-10.4968,-10.5052,-10.5049,-10.5129,-10.5209,-10.5175,-10.5286,-10.5318,-10.5402,-10.5426,-10.551,-10.5447,-10.5499,-10.551,-10.5523,-10.5538,-10.5162,-10.5523,-10.5522,-10.5521,-10.552,-10.5519,0,-10.5039,-10.5056,-10.5141,-10.5211,-10.5282,-10.5212,-10.5262,-10.5325,-10.5424,-10.5462,-10.553,-10.5639,-10.5723,-10.5722,-10.5798,-10.5866,-10.5834,-10.5887,-10.5879,-10.5882,-10.5592,-10.5552,-10.5911,-10.5911,-10.5911,-10.5911,-10.5911,-10.5911,-10.5238,-10.5389,-10.5375,-10.5541,-10.5556,-10.5665,-10.5699,-10.5741,-10.577,-10.5897,-10.5967,-10.5967,-10.5988,-10.6065,-10.6138,-10.6135,-10.6165,-10.623,-10.6214,-10.5942,-10.5903,-10.5866,-10.5827,-10.6239,-10.6239,-10.6496,-10.6499,-10.6501]},{"header":{"parameterUnit":"m.s-1","parameterCategory":1,"la1":30.2991,"la2":30.254,"lo1":-89.0895,"lo2":-89.0444,"dy":0.0017,"dx":0.0017,"nx":28,"ny":28,"refTime":"2024-06-17T09:00:00:Z","depth":0,"parameterNumber":3,"parameterNumberName":"V-component_of_WINDS"},"data":[0,0,0,0,0,0,0,0,0,0,0,0,0,0,0,0,0,0,0,0,0,0,0,0,0,0,0,0,0,0,0,0,0,0,0,0,0,0,0,0,0,0,0,0,0,0,0,0,0,0,0,0,0,0,0,0,0,0,1.5573,1.5574,0,1.5684,1.5686,1.5687,1.5709,1.5708,1.5707,1.5706,1.582,1.5824,1.5827,0,0,0,0,0,0,0,0,0,0,0,0,0,1.5381,1.5384,1.5573,1.5575,1.5576,1.5684,1.5686,1.5687,1.5709,1.5708,1.5707,1.5706,1.5819,1.5823,1.5828,0,0,0,0,0,0,0,0,0,0,0,0,0,1.5475,1.5386,1.5573,1.56,1.5603,1.5684,1.5686,1.5688,1.5709,1.5708,1.5707,1.5705,1.5817,1.5823,1.5828,1.589,0,0,1.5846,1.5848,0,0,0,0,0,0,0,0,1.547,1.5483,1.5595,1.5598,1.5602,1.5681,1.566,1.5755,1.571,1.5669,1.5706,1.5705,1.5775,1.5784,1.5808,1.5895,1.59,1.5846,1.585,1.5852,1.5854,0,0,0,0,0,0,0,1.5464,1.5478,1.5617,1.5596,1.5601,1.5607,1.5619,1.5678,1.5728,1.5672,1.5674,1.5687,1.5777,1.5802,1.581,1.5901,1.5846,1.5851,1.5855,1.5857,1.6046,1.6048,0,0,0,0,0,0,1.5452,1.5472,1.5614,1.562,1.5532,1.5611,1.5625,1.5657,1.5727,1.5737,1.5688,1.5688,1.5793,1.5804,1.5814,1.5892,1.5852,1.5858,1.5861,1.6044,1.6046,1.6048,0,0,0,0,0,0,1.5448,1.5465,1.5609,1.5547,1.5566,1.5616,1.5652,1.566,1.5686,1.5739,1.5748,1.5705,1.5792,1.5806,1.5871,1.5896,1.586,1.5865,1.6043,1.6045,1.6047,1.6046,0,0,0,0,0,0,1.5442,1.5463,1.5486,1.5547,1.5569,1.5664,1.5654,1.5663,1.5695,1.5696,1.5757,1.5766,1.5792,1.5862,1.5877,1.5903,1.587,1.6041,1.6044,1.6046,1.6044,1.6048,1.6051,0,0,0,0,0,1.5435,1.5481,1.5487,1.5504,1.5599,1.5665,1.5677,1.5707,1.5697,1.5722,1.5756,1.5764,1.5891,1.5869,1.5885,1.5914,1.6039,1.6043,1.6046,1.6042,1.6047,1.6051,0,0,0,0,0,0,1.5421,1.549,1.5497,1.5564,1.5609,1.5668,1.57,1.5711,1.5759,1.5757,1.5792,1.5805,1.5868,1.5897,1.5872,1.5977,1.5965,1.5971,1.5956,1.5961,1.5965,1.5956,1.5875,0,0,0,0,0,1.5426,1.5473,1.5531,1.5584,1.5606,1.5649,1.5679,1.5698,1.5745,1.5764,1.5803,1.5849,1.59,1.5932,1.5981,1.6048,1.6062,1.6076,1.608,1.6083,1.6088,1.6127,1.6134,1.606,1.606,1.606,0,0,1.5436,1.5479,1.5507,1.5582,1.5619,1.5668,1.5665,1.5716,1.5753,1.5772,1.5835,1.5866,1.592,1.5986,1.6017,1.6012,1.6112,1.6087,1.6089,1.6093,1.6132,1.6139,1.6145,1.6062,1.6062,1.6061,0,0,1.548,1.5517,1.5566,1.5603,1.5659,1.5688,1.5699,1.5758,1.5779,1.5844,1.586,1.5904,1.5989,1.6027,1.6058,1.6117,1.6127,1.6132,1.6152,1.6189,1.6195,1.62,1.6222,1.623,1.6138,1.6138,1.6138,0,1.5485,1.5559,1.559,1.5641,1.5674,1.5694,1.5745,1.5779,1.5848,1.5871,1.5864,1.5973,1.6011,1.6087,1.6101,1.6125,1.614,1.6125,1.6192,1.6197,1.6203,1.6224,1.6232,1.6138,1.6138,1.6138,1.6138,0,1.5563,1.5615,1.5648,1.5714,1.5751,1.5802,1.5841,1.5874,1.589,1.592,1.5986,1.6032,1.6091,1.6111,1.6127,1.619,1.6185,1.6185,1.6172,1.621,1.623,1.6239,1.6139,1.6139,1.6138,1.6138,0,0,1.56,1.5684,1.5696,1.5727,1.5791,1.5831,1.5883,1.5942,1.597,1.6017,1.6062,1.6135,1.6135,1.617,1.6191,1.6224,1.6269,1.622,1.6221,1.6227,1.6342,1.6342,1.6351,1.6276,1.6277,1.6279,1.6338,0,1.5652,1.5745,1.5775,1.5853,1.5901,1.5922,1.5967,1.6011,1.604,1.6086,1.6118,1.617,1.6166,1.6187,1.6221,1.6256,1.6292,1.6252,1.6318,1.632,1.6304,1.6362,1.6362,1.6415,1.6346,1.6347,1.6348,0,1.5724,1.5773,1.5856,1.5915,1.5936,1.5976,1.6033,1.6076,1.6127,1.6146,1.6185,1.6204,1.6259,1.6244,1.6322,1.6294,1.6323,1.6344,1.6347,1.6354,1.6336,1.6371,1.6433,1.6441,1.6361,1.636,1.6359,0,1.5744,1.583,1.5892,1.5917,1.5987,1.6015,1.6046,1.6096,1.6129,1.6179,1.6201,1.6256,1.6287,1.6329,1.6362,1.6348,1.6437,1.6425,1.6455,1.6454,1.6473,1.6471,1.6541,1.6491,1.6491,1.6491,1.649,0,1.5798,1.5848,1.5901,1.5939,1.5996,1.603,1.6086,1.6117,1.6162,1.6206,1.6227,1.6269,1.631,1.6356,1.6383,1.6443,1.6457,1.6474,1.648,1.6472,1.647,1.6492,1.6489,1.6493,1.6492,1.6492,1.6492,0,1.583,1.5867,1.5935,1.5996,1.6013,1.6052,1.6105,1.6142,1.6173,1.6229,1.6244,1.6292,1.6348,1.6385,1.6457,1.6475,1.6541,1.6547,1.6524,1.6527,1.6556,1.6553,1.6642,1.6656,1.6596,1.6597,1.6597,0,1.5862,1.5901,1.5967,1.5998,1.6029,1.6079,1.6114,1.6149,1.6185,1.6247,1.6277,1.6335,1.6383,1.6472,1.6514,1.6569,1.6576,1.6604,1.6585,1.6576,1.6577,1.6575,1.6579,1.6607,1.6607,1.6607,1.6608,0,1.5916,1.5933,1.5982,1.6038,1.6079,1.6125,1.6171,1.6195,1.6239,1.6278,1.6336,1.6374,1.6448,1.6505,1.6565,1.6596,1.661,1.6614,1.6624,1.6616,1.6601,1.661,1.6533,1.6611,1.6611,1.6611,1.661,1.661,1.5949,1.5986,1.6038,1.6092,1.6131,1.6173,1.6212,1.6248,1.6297,1.636,1.6378,1.6439,1.649,1.6571,1.6604,1.6653,1.665,1.6664,1.6668,1.6671,1.6672,1.6594,1.6664,1.6664,1.6664,1.6664,1.6664,0,1.6005,1.604,1.609,1.6154,1.6197,1.6206,1.6257,1.6293,1.6346,1.6393,1.644,1.6508,1.6564,1.661,1.6668,1.6698,1.6706,1.6712,1.671,1.6718,1.6671,1.6656,1.6705,1.6705,1.6705,1.6705,1.6705,1.6705,1.6039,1.6101,1.6124,1.6206,1.624,1.63,1.6329,1.6369,1.6407,1.6481,1.6528,1.6558,1.6605,1.6666,1.6719,1.6731,1.6751,1.6757,1.677,1.6725,1.6721,1.6716,1.6703,1.6761,1.6761,1.6813,1.6814,1.6814]}]]